Weather History for TDPD - September, 2013

Change the Weather History Date:

Wednesday, September 11, 2013

  Actual Average Record
Temperature  
Mean Temperature 81 °F -  
Max Temperature 87 °F 85 °F 91 °F (2005)
Min Temperature 75 °F 75 °F 73 °F (2003)
Cooling Degree Days 16    
Growing Degree Days 31 (Base 50)    
Moisture  
Dew Point 75 °F    
Average Humidity 76    
Maximum Humidity 94    
Minimum Humidity 55    
Precipitation  
Precipitation 0.04 in 0.41 in - ()
Sea Level Pressure  
Sea Level Pressure 29.94 in    
Wind  
Wind Speed 4 mph ()    
Max Wind Speed 7 mph    
Max Gust Speed -    
Visibility 8.5 miles    
Events      
Averages and records for this station are not official NWS values.
T = Trace of Precipitation, MM = Missing Value Source: Averaged Metar Reports

Daily Weather History Graph

Daily Weather History Graph

Search for Another Location

Airport or City:

Trip Planner

Search our weather history database for the weather conditions in past years. The results will help you decide how hot, cold, wet, or windy it might be!

Date:

Astronomy

Sep. 11, 2013 Rise Set
Actual Time 5:53 AM AST 6:09 PM AST
Civil Twilight 5:31 AM AST 6:31 PM AST
Nautical Twilight 5:06 AM AST 6:56 PM AST
Astronomical Twilight 4:41 AM AST 7:21 PM AST
Moon 11:18 AM AST (9/11) 11:00 PM AST (9/11)
Length of Visible Light 12h 59m
Length of Day
12h 16m
Waxing Crescent, 38% of the Moon is Illuminated
Sep 11
Waxing Crescent
Sep 12
First Quarter
Sep 19
Full
Sep 26
Last Quarter
Oct 4
New

Hourly Weather History & Observations

Time (AST) Temp. Heat Index Dew Point Humidity Pressure Visibility Wind Dir Wind Speed Gust Speed Precip Events Conditions
6:00 AM 77.0 °F - 75.2 °F 94% 29.95 in 6.2 mi Calm Calm - N/A   Mostly Cloudy
7:00 AM 77.0 °F - 75.2 °F 94% 29.98 in 6.2 mi West 6.9 mph - N/A   Mostly Cloudy
8:00 AM 81 °F - 78 °F 88% 29.98 in 9 mi West 5.8 mph - -   Mostly Cloudy
8:00 AM 80.6 °F 88.1 °F 78.8 °F 94% 29.98 in 6.2 mi West 5.8 mph - N/A   Mostly Cloudy
9:00 AM 80.6 °F 87.1 °F 77.0 °F 89% 29.98 in 6.2 mi SW 4.6 mph - N/A   Mostly Cloudy
10:00 AM 86.0 °F 96.9 °F 77.0 °F 74% 29.98 in 6.2 mi West 3.5 mph - N/A   Scattered Clouds
11:00 AM 87 °F - 76 °F 62% 29.99 in 17 mi East 4.6 mph - -   Partly Cloudy
11:00 AM 86.0 °F 95.1 °F 75.2 °F 70% 29.98 in 6.2 mi East 4.6 mph - N/A   Scattered Clouds
12:00 PM 87.8 °F 99.7 °F 77.0 °F 70% 29.98 in 6.2 mi East 5.8 mph - N/A   Scattered Clouds
1:00 PM 87.8 °F 99.7 °F 77.0 °F 70% 29.95 in 6.2 mi East 6.9 mph - N/A   Scattered Clouds
2:00 PM 87 °F - 73 °F 55% 29.92 in 17 mi ESE 4.6 mph - -   Partly Cloudy
2:00 PM 86.0 °F 93.4 °F 73.4 °F 66% 29.92 in 6.2 mi ESE 4.6 mph - N/A   Scattered Clouds
3:00 PM 87.8 °F 95.6 °F 73.4 °F 62% 29.86 in 6.2 mi ENE 4.6 mph - N/A   Scattered Clouds
4:00 PM 87.8 °F 95.6 °F 73.4 °F 62% 29.89 in 6.2 mi East 5.8 mph - N/A   Mostly Cloudy
5:00 PM 85 °F - 72 °F 58% 29.89 in 17 mi NE 4.6 mph - -   Partly Cloudy
5:00 PM 84.2 °F 90.9 °F 73.4 °F 70% 29.89 in 6.2 mi NE 4.6 mph - N/A   Scattered Clouds
6:00 PM 84.2 °F 92.3 °F 75.2 °F 74% 29.89 in 6.2 mi NE 4.6 mph - N/A   Mostly Cloudy
7:00 PM 80.6 °F 86.2 °F 75.2 °F 84% 29.89 in 6.2 mi West 3.5 mph - N/A   Partly Cloudy
8:00 PM 78 °F - 75 °F 89% 29.91 in 17 mi West 6.9 mph - -   Scattered Clouds
8:00 PM 78.8 °F - 75.2 °F 89% 29.89 in 6.2 mi West 6.9 mph - N/A   Partly Cloudy